Location: Altenst�hlen
(53.5567°N, 8.9425°E)
Time: 21:39:15
(UTC+00:00)

NOSS 3-2 (A) - Pass Details

Date: 23 October 2019
Orbit: 816 x 1392 km, 63.4° (Epoch: 11 November)

Event Time Altitude Azimuth Distance (km) Brightness Sun altitude
Rises 17:53:19 0° 209° (SSW) 3,420 6.7 -15.8°
Reaches altitude 10° 17:55:41 10° 206° (SSW) 2,535 6.0 -16.2°
Maximum altitude 18:01:26 60° 128° (SE) 1,089 3.5 -17.1°
Enters shadow 18:06:32 17° 53° (NE) 2,356 5.1 -17.8°
